Time,TemperatureF,DewpointF,PressureIn,WindDirection,WindDirectionDegrees,WindSpeedMPH,WindSpeedGustMPH,Humidity,HourlyPrecipIn,Conditions,Clouds,dailyrainin,SoftwareType,DateUTC
2013-01-26 00:01:00,18.5,16.8,30.16,SW,229,2.0,3.0,93,0.00,,,0.00,Wunderground v.1.15,2013-01-26 05:01:00,
2013-01-26 00:03:00,18.5,16.8,30.16,SSW,200,2.0,3.0,93,0.00,,,0.00,Wunderground v.1.15,2013-01-26 05:03:00,
2013-01-26 00:05:00,18.5,16.8,30.16,WSW,238,2.0,6.0,93,0.00,,,0.00,Wunderground v.1.15,2013-01-26 05:05:00,
2013-01-26 00:06:00,18.5,16.8,30.16,SW,228,2.0,6.0,93,0.00,,,0.00,Wunderground v.1.15,2013-01-26 05:06:00,
2013-01-26 00:12:00,18.5,16.8,30.17,WNW,286,3.0,3.0,93,0.00,,,0.00,Wunderground v.1.15,2013-01-26 05:12:00,
2013-01-26 00:17:00,18.5,16.8,30.17,WNW,302,2.0,6.0,93,0.00,,,0.00,Wunderground v.1.15,2013-01-26 05:17:00,
2013-01-26 00:23:00,18.5,16.8,30.17,WSW,242,2.0,5.0,93,0.00,,,0.00,Wunderground v.1.15,2013-01-26 05:23:00,
2013-01-26 00:29:00,18.5,16.8,30.17,West,267,3.0,5.0,93,0.00,,,0.00,Wunderground v.1.15,2013-01-26 05:29:00,
2013-01-26 00:34:00,18.5,16.8,30.17,WSW,248,3.0,4.0,93,0.00,,,0.00,Wunderground v.1.15,2013-01-26 05:34:00,
2013-01-26 00:40:00,18.5,17.1,30.18,WSW,250,3.0,6.0,94,0.00,,,0.00,Wunderground v.1.15,2013-01-26 05:40:00,
2013-01-26 00:46:00,18.5,17.1,30.17,NW,307,3.0,6.0,94,0.00,,,0.00,Wunderground v.1.15,2013-01-26 05:46:00,
2013-01-26 00:52:00,18.5,17.1,30.18,West,266,3.0,3.0,94,0.00,,,0.00,Wunderground v.1.15,2013-01-26 05:52:00,
2013-01-26 00:58:00,18.5,17.1,30.17,West,271,2.0,4.0,94,0.00,,,0.00,Wunderground v.1.15,2013-01-26 05:58:00,
2013-01-26 01:04:00,18.5,17.1,30.18,West,272,2.0,6.0,94,0.00,,,0.00,Wunderground v.1.15,2013-01-26 06:04:00,
2013-01-26 01:10:00,18.5,16.8,30.17,SSW,212,2.0,3.0,93,0.00,,,0.00,Wunderground v.1.15,2013-01-26 06:10:00,
2013-01-26 01:15:00,18.4,17.0,30.17,SW,226,3.0,5.0,94,0.00,,,0.00,Wunderground v.1.15,2013-01-26 06:15:00,
2013-01-26 01:21:00,18.4,16.7,30.17,SW,225,3.0,3.0,93,0.00,,,0.00,Wunderground v.1.15,2013-01-26 06:21:00,
2013-01-26 01:27:00,18.4,16.7,30.17,NW,306,3.0,6.0,93,0.00,,,0.00,Wunderground v.1.15,2013-01-26 06:27:00,
2013-01-26 01:33:00,18.4,17.0,30.18,West,263,3.0,3.0,94,0.00,,,0.00,Wunderground v.1.15,2013-01-26 06:33:00,
2013-01-26 01:39:00,18.4,17.0,30.18,WSW,257,2.0,3.0,94,0.00,,,0.00,Wunderground v.1.15,2013-01-26 06:39:00,
2013-01-26 01:45:00,18.4,17.0,30.18,West,271,3.0,10.0,94,0.00,,,0.00,Wunderground v.1.15,2013-01-26 06:45:00,
2013-01-26 01:51:00,18.4,17.0,30.18,West,281,3.0,5.0,94,0.00,,,0.00,Wunderground v.1.15,2013-01-26 06:51:00,
2013-01-26 01:56:00,18.4,17.0,30.18,WSW,248,3.0,5.0,94,0.00,,,0.00,Wunderground v.1.15,2013-01-26 06:56:00,
2013-01-26 02:02:00,18.4,17.0,30.18,West,263,2.0,3.0,94,0.00,,,0.00,Wunderground v.1.15,2013-01-26 07:02:00,
2013-01-26 02:08:00,18.4,17.0,30.18,WSW,258,2.0,3.0,94,0.00,,,0.00,Wunderground v.1.15,2013-01-26 07:08:00,
2013-01-26 02:14:00,18.4,17.0,30.18,West,271,2.0,3.0,94,0.00,,,0.00,Wunderground v.1.15,2013-01-26 07:14:00,
2013-01-26 02:20:00,18.4,17.0,30.18,WSW,251,2.0,5.0,94,0.00,,,0.00,Wunderground v.1.15,2013-01-26 07:20:00,
2013-01-26 02:26:00,18.4,17.0,30.17,WSW,250,3.0,6.0,94,0.00,,,0.00,Wunderground v.1.15,2013-01-26 07:26:00,
2013-01-26 02:32:00,18.4,17.0,30.17,West,277,2.0,3.0,94,0.00,,,0.00,Wunderground v.1.15,2013-01-26 07:32:00,
2013-01-26 02:37:00,18.4,17.0,30.18,WSW,252,2.0,5.0,94,0.00,,,0.00,Wunderground v.1.15,2013-01-26 07:37:00,
2013-01-26 02:43:00,18.4,17.0,30.18,West,273,3.0,6.0,94,0.00,,,0.00,Wunderground v.1.15,2013-01-26 07:43:00,
2013-01-26 02:49:00,18.5,17.1,30.18,SW,225,3.0,9.0,94,0.00,,,0.00,Wunderground v.1.15,2013-01-26 07:49:00,
2013-01-26 02:55:00,18.5,17.1,30.18,WSW,250,3.0,6.0,94,0.00,,,0.00,Wunderground v.1.15,2013-01-26 07:55:00,
2013-01-26 03:01:00,18.5,17.1,30.18,West,280,2.0,3.0,94,0.00,,,0.00,Wunderground v.1.15,2013-01-26 08:01:00,
2013-01-26 03:07:00,18.5,17.1,30.18,NW,317,2.0,5.0,94,0.00,,,0.00,Wunderground v.1.15,2013-01-26 08:07:00,
2013-01-26 03:13:00,18.6,17.2,30.18,WNW,282,3.0,3.0,94,0.00,,,0.00,Wunderground v.1.15,2013-01-26 08:13:00,
2013-01-26 03:18:00,18.6,17.2,30.18,West,268,2.0,3.0,94,0.00,,,0.00,Wunderground v.1.15,2013-01-26 08:18:00,
2013-01-26 03:24:00,18.7,17.3,30.18,SSW,193,2.0,6.0,94,0.00,,,0.00,Wunderground v.1.15,2013-01-26 08:24:00,
2013-01-26 03:30:00,18.7,17.3,30.18,WNW,293,3.0,3.0,94,0.00,,,0.00,Wunderground v.1.15,2013-01-26 08:30:00,
2013-01-26 03:36:00,18.8,17.4,30.18,WSW,243,2.0,3.0,94,0.00,,,0.00,Wunderground v.1.15,2013-01-26 08:36:00,
2013-01-26 03:42:00,18.8,17.4,30.18,SW,219,2.0,3.0,94,0.00,,,0.00,Wunderground v.1.15,2013-01-26 08:42:00,
2013-01-26 03:48:00,18.8,17.4,30.18,WSW,246,2.0,5.0,94,0.00,,,0.00,Wunderground v.1.15,2013-01-26 08:48:00,
2013-01-26 03:54:00,18.9,17.5,30.18,WSW,243,3.0,8.0,94,0.00,,,0.00,Wunderground v.1.15,2013-01-26 08:54:00,
2013-01-26 03:59:00,18.9,17.5,30.19,West,273,3.0,8.0,94,0.00,,,0.00,Wunderground v.1.15,2013-01-26 08:59:00,
2013-01-26 04:05:00,19.0,17.6,30.19,WSW,242,2.0,3.0,94,0.00,,,0.00,Wunderground v.1.15,2013-01-26 09:05:00,
2013-01-26 04:11:00,19.1,17.7,30.19,SW,227,3.0,3.0,94,0.00,,,0.00,Wunderground v.1.15,2013-01-26 09:11:00,
2013-01-26 04:17:00,19.1,17.7,30.19,NW,323,3.0,8.0,94,0.00,,,0.00,Wunderground v.1.15,2013-01-26 09:17:00,
2013-01-26 04:23:00,19.3,17.9,30.19,West,274,2.0,3.0,94,0.00,,,0.00,Wunderground v.1.15,2013-01-26 09:23:00,
2013-01-26 04:29:00,19.3,17.9,30.19,West,266,2.0,6.0,94,0.00,,,0.00,Wunderground v.1.15,2013-01-26 09:29:00,
2013-01-26 04:35:00,19.3,17.9,30.19,SW,232,2.0,4.0,94,0.00,,,0.00,Wunderground v.1.15,2013-01-26 09:35:00,
2013-01-26 04:41:00,19.3,17.9,30.19,West,273,3.0,6.0,94,0.00,,,0.00,Wunderground v.1.15,2013-01-26 09:41:00,
2013-01-26 04:47:00,19.4,18.0,30.20,SW,231,3.0,7.0,94,0.00,,,0.00,Wunderground v.1.15,2013-01-26 09:47:00,
2013-01-26 04:52:00,19.5,18.1,30.20,WNW,292,3.0,3.0,94,0.00,,,0.00,Wunderground v.1.15,2013-01-26 09:52:00,
2013-01-26 04:58:00,19.5,18.1,30.20,SSW,208,2.0,6.0,94,0.00,,,0.00,Wunderground v.1.15,2013-01-26 09:58:00,
2013-01-26 05:04:00,19.5,18.1,30.20,WSW,242,2.0,4.0,94,0.00,,,0.00,Wunderground v.1.15,2013-01-26 10:04:00,
2013-01-26 05:10:00,19.5,18.1,30.20,West,279,2.0,3.0,94,0.00,,,0.00,Wunderground v.1.15,2013-01-26 10:10:00,
2013-01-26 05:16:00,19.6,18.2,30.20,NNW,328,3.0,3.0,94,0.00,,,0.00,Wunderground v.1.15,2013-01-26 10:16:00,
2013-01-26 05:22:00,19.6,18.2,30.20,West,260,3.0,3.0,94,0.00,,,0.00,Wunderground v.1.15,2013-01-26 10:22:00,
2013-01-26 05:28:00,19.7,18.3,30.20,WSW,242,2.0,4.0,94,0.00,,,0.00,Wunderground v.1.15,2013-01-26 10:28:00,
2013-01-26 05:33:00,19.7,18.3,30.20,SW,234,2.0,6.0,94,0.00,,,0.00,Wunderground v.1.15,2013-01-26 10:33:00,
2013-01-26 05:39:00,19.7,18.3,30.20,NW,322,2.0,6.0,94,0.00,,,0.00,Wunderground v.1.15,2013-01-26 10:39:00,
2013-01-26 05:45:00,19.8,18.4,30.20,SW,236,2.0,5.0,94,0.00,,,0.00,Wunderground v.1.15,2013-01-26 10:45:00,
2013-01-26 05:51:00,19.8,18.4,30.20,WNW,294,2.0,3.0,94,0.00,,,0.00,Wunderground v.1.15,2013-01-26 10:51:00,
2013-01-26 05:57:00,19.8,18.4,30.20,West,279,2.0,3.0,94,0.00,,,0.00,Wunderground v.1.15,2013-01-26 10:57:00,
2013-01-26 06:03:00,19.9,18.5,30.20,WSW,242,2.0,5.0,94,0.00,,,0.00,Wunderground v.1.15,2013-01-26 11:03:00,
2013-01-26 06:09:00,19.9,18.5,30.20,West,275,2.0,5.0,94,0.00,,,0.00,Wunderground v.1.15,2013-01-26 11:09:00,
2013-01-26 06:14:00,19.9,18.5,30.20,West,273,2.0,3.0,94,0.00,,,0.00,Wunderground v.1.15,2013-01-26 11:14:00,
2013-01-26 06:20:00,19.9,18.5,30.20,NW,313,2.0,3.0,94,0.00,,,0.00,Wunderground v.1.15,2013-01-26 11:20:00,
2013-01-26 06:26:00,20.0,18.6,30.20,WSW,254,1.0,3.0,94,0.00,,,0.00,Wunderground v.1.15,2013-01-26 11:26:00,
2013-01-26 06:32:00,20.0,18.6,30.21,WNW,290,2.0,3.0,94,0.00,,,0.00,Wunderground v.1.15,2013-01-26 11:32:00,
2013-01-26 06:38:00,20.0,18.6,30.21,NW,304,1.0,3.0,94,0.00,,,0.00,Wunderground v.1.15,2013-01-26 11:38:00,
2013-01-26 06:44:00,20.1,18.7,30.21,West,259,2.0,3.0,94,0.00,,,0.00,Wunderground v.1.15,2013-01-26 11:44:00,
2013-01-26 06:50:00,20.1,18.7,30.21,SSW,206,1.0,3.0,94,0.00,,,0.00,Wunderground v.1.15,2013-01-26 11:50:00,
2013-01-26 06:56:00,20.1,18.7,30.22,WNW,291,1.0,3.0,94,0.00,,,0.00,Wunderground v.1.15,2013-01-26 11:56:00,
2013-01-26 07:02:00,20.2,18.8,30.22,WNW,290,1.0,3.0,94,0.00,,,0.00,Wunderground v.1.15,2013-01-26 12:02:00,
2013-01-26 07:07:00,20.3,18.8,30.22,West,259,2.0,5.0,94,0.00,,,0.00,Wunderground v.1.15,2013-01-26 12:07:00,
2013-01-26 07:13:00,20.3,18.8,30.22,West,266,1.0,3.0,94,0.00,,,0.00,Wunderground v.1.15,2013-01-26 12:13:00,
2013-01-26 07:19:00,20.3,18.8,30.22,WSW,249,1.0,5.0,94,0.00,,,0.00,Wunderground v.1.15,2013-01-26 12:19:00,
2013-01-26 07:25:00,20.3,18.8,30.22,WSW,237,1.0,3.0,94,0.00,,,0.00,Wunderground v.1.15,2013-01-26 12:25:00,
2013-01-26 07:31:00,20.4,18.9,30.22,WSW,251,1.0,3.0,94,0.00,,,0.00,Wunderground v.1.15,2013-01-26 12:31:00,
2013-01-26 07:37:00,20.4,18.9,30.22,West,259,1.0,3.0,94,0.00,,,0.00,Wunderground v.1.15,2013-01-26 12:37:00,
2013-01-26 07:43:00,20.4,18.9,30.22,WSW,248,1.0,3.0,94,0.00,,,0.00,Wunderground v.1.15,2013-01-26 12:43:00,
2013-01-26 07:49:00,20.5,19.0,30.22,WNW,291,0.0,3.0,94,0.00,,,0.00,Wunderground v.1.15,2013-01-26 12:49:00,
2013-01-26 07:55:00,20.6,19.1,30.22,WSW,245,1.0,4.0,94,0.00,,,0.00,Wunderground v.1.15,2013-01-26 12:55:00,
2013-01-26 08:01:00,20.6,19.1,30.23,SW,228,1.0,3.0,94,0.00,,,0.00,Wunderground v.1.15,2013-01-26 13:01:00,
2013-01-26 08:06:00,20.6,19.1,30.22,South,184,1.0,3.0,94,0.00,,,0.00,Wunderground v.1.15,2013-01-26 13:06:00,
2013-01-26 08:12:00,20.6,19.1,30.23,SW,219,1.0,3.0,94,0.00,,,0.00,Wunderground v.1.15,2013-01-26 13:12:00,
2013-01-26 08:18:00,20.7,19.5,30.23,WSW,241,1.0,3.0,95,0.00,,,0.00,Wunderground v.1.15,2013-01-26 13:18:00,
2013-01-26 08:24:00,20.7,19.5,30.23,SSW,196,1.0,3.0,95,0.00,,,0.00,Wunderground v.1.15,2013-01-26 13:24:00,
2013-01-26 08:30:00,20.7,19.5,30.23,WSW,244,1.0,1.0,95,0.00,,,0.00,Wunderground v.1.15,2013-01-26 13:30:00,
2013-01-26 08:36:00,20.8,19.3,30.23,SW,236,1.0,3.0,94,0.00,,,0.00,Wunderground v.1.15,2013-01-26 13:36:00,
2013-01-26 08:42:00,20.9,19.4,30.23,SSW,211,1.0,3.0,94,0.00,,,0.00,Wunderground v.1.15,2013-01-26 13:42:00,
2013-01-26 08:47:00,20.9,19.4,30.23,West,263,1.0,3.0,94,0.00,,,0.00,Wunderground v.1.15,2013-01-26 13:47:00,
2013-01-26 08:53:00,21.0,19.8,30.24,SW,225,1.0,4.0,95,0.00,,,0.00,Wunderground v.1.15,2013-01-26 13:53:00,
2013-01-26 08:59:00,21.2,20.0,30.24,SSE,160,1.0,4.0,95,0.00,,,0.00,Wunderground v.1.15,2013-01-26 13:59:00,
2013-01-26 09:05:00,21.3,20.1,30.24,West,279,1.0,5.0,95,0.00,,,0.00,Wunderground v.1.15,2013-01-26 14:05:00,
2013-01-26 09:11:00,21.4,20.2,30.24,WNW,284,1.0,3.0,95,0.00,,,0.00,Wunderground v.1.15,2013-01-26 14:11:00,
2013-01-26 09:17:00,21.5,20.3,30.24,WSW,250,2.0,4.0,95,0.00,,,0.00,Wunderground v.1.15,2013-01-26 14:17:00,
2013-01-26 09:23:00,21.6,20.4,30.25,WNW,289,2.0,4.0,95,0.00,,,0.00,Wunderground v.1.15,2013-01-26 14:23:00,
2013-01-26 09:28:00,21.6,20.4,30.25,WNW,295,2.0,4.0,95,0.00,,,0.00,Wunderground v.1.15,2013-01-26 14:28:00,
2013-01-26 09:34:00,21.7,20.5,30.25,WSW,254,2.0,3.0,95,0.00,,,0.00,Wunderground v.1.15,2013-01-26 14:34:00,
2013-01-26 09:40:00,21.8,20.6,30.26,SW,233,2.0,3.0,95,0.00,,,0.00,Wunderground v.1.15,2013-01-26 14:40:00,
2013-01-26 09:46:00,21.8,20.6,30.26,West,273,3.0,5.0,95,0.00,,,0.00,Wunderground v.1.15,2013-01-26 14:46:00,
2013-01-26 09:52:00,22.0,20.8,30.26,West,269,2.0,3.0,95,0.00,,,0.00,Wunderground v.1.15,2013-01-26 14:52:00,
2013-01-26 09:58:00,22.1,20.9,30.26,West,270,1.0,3.0,95,0.00,,,0.00,Wunderground v.1.15,2013-01-26 14:58:00,
2013-01-26 10:04:00,22.3,21.1,30.26,NNE,15,2.0,3.0,95,0.00,,,0.00,Wunderground v.1.15,2013-01-26 15:04:00,
2013-01-26 10:09:00,22.4,21.2,30.26,WNW,289,2.0,3.0,95,0.00,,,0.00,Wunderground v.1.15,2013-01-26 15:09:00,
2013-01-26 10:15:00,22.5,21.3,30.27,WNW,289,2.0,5.0,95,0.00,,,0.00,Wunderground v.1.15,2013-01-26 15:15:00,
2013-01-26 10:21:00,22.6,21.4,30.27,West,269,2.0,3.0,95,0.00,,,0.00,Wunderground v.1.15,2013-01-26 15:21:00,
2013-01-26 10:27:00,22.7,21.5,30.27,West,265,2.0,5.0,95,0.00,,,0.00,Wunderground v.1.15,2013-01-26 15:27:00,
2013-01-26 10:33:00,22.8,21.6,30.27,WNW,289,2.0,3.0,95,0.00,,,0.00,Wunderground v.1.15,2013-01-26 15:33:00,
2013-01-26 10:39:00,22.9,21.7,30.27,SW,225,2.0,4.0,95,0.00,,,0.00,Wunderground v.1.15,2013-01-26 15:39:00,
2013-01-26 10:45:00,22.9,21.7,30.27,SSW,201,2.0,4.0,95,0.00,,,0.00,Wunderground v.1.15,2013-01-26 15:45:00,
2013-01-26 10:50:00,23.0,21.8,30.27,West,259,2.0,3.0,95,0.00,,,0.00,Wunderground v.1.15,2013-01-26 15:50:00,
2013-01-26 10:56:00,23.1,21.9,30.28,WNW,292,2.0,4.0,95,0.00,,,0.00,Wunderground v.1.15,2013-01-26 15:56:00,
2013-01-26 11:01:00,23.3,22.1,30.27,West,266,1.0,3.0,95,0.00,,,0.00,Wunderground v.1.15,2013-01-26 16:01:00,
2013-01-26 11:07:00,23.3,22.1,30.28,West,273,1.0,3.0,95,0.00,,,0.00,Wunderground v.1.15,2013-01-26 16:07:00,
2013-01-26 11:13:00,23.3,22.1,30.28,NW,321,1.0,3.0,95,0.00,,,0.00,Wunderground v.1.15,2013-01-26 16:13:00,
2013-01-26 11:19:00,23.4,22.2,30.28,NW,306,1.0,3.0,95,0.00,,,0.00,Wunderground v.1.15,2013-01-26 16:19:00,
2013-01-26 11:25:00,23.4,22.2,30.27,WNW,302,1.0,3.0,95,0.00,,,0.00,Wunderground v.1.15,2013-01-26 16:25:00,
2013-01-26 11:31:00,23.3,22.1,30.28,SW,227,2.0,4.0,95,0.00,,,0.00,Wunderground v.1.15,2013-01-26 16:31:00,
2013-01-26 11:37:00,23.3,22.1,30.28,West,261,2.0,4.0,95,0.00,,,0.00,Wunderground v.1.15,2013-01-26 16:37:00,
2013-01-26 11:43:00,23.4,22.2,30.28,WSW,244,1.0,6.0,95,0.00,,,0.00,Wunderground v.1.15,2013-01-26 16:43:00,
2013-01-26 11:49:00,23.5,22.3,30.27,WNW,288,1.0,6.0,95,0.00,,,0.00,Wunderground v.1.15,2013-01-26 16:49:00,
2013-01-26 11:54:00,23.7,22.5,30.27,West,263,1.0,3.0,95,0.00,,,0.00,Wunderground v.1.15,2013-01-26 16:54:00,
2013-01-26 12:00:00,23.8,22.6,30.27,West,272,1.0,3.0,95,0.00,,,0.00,Wunderground v.1.15,2013-01-26 17:00:00,
2013-01-26 12:06:00,23.8,22.6,30.27,SW,229,2.0,5.0,95,0.00,,,0.00,Wunderground v.1.15,2013-01-26 17:06:00,
2013-01-26 12:12:00,23.7,22.5,30.27,WNW,290,2.0,5.0,95,0.00,,,0.00,Wunderground v.1.15,2013-01-26 17:12:00,
2013-01-26 12:18:00,23.8,22.6,30.27,WSW,257,2.0,5.0,95,0.00,,,0.00,Wunderground v.1.15,2013-01-26 17:18:00,
2013-01-26 12:24:00,24.0,22.8,30.27,NW,317,1.0,4.0,95,0.00,,,0.00,Wunderground v.1.15,2013-01-26 17:24:00,
2013-01-26 12:29:00,24.0,22.8,30.27,WNW,295,2.0,4.0,95,0.00,,,0.00,Wunderground v.1.15,2013-01-26 17:29:00,
2013-01-26 12:35:00,23.9,22.7,30.27,WSW,254,2.0,3.0,95,0.00,,,0.00,Wunderground v.1.15,2013-01-26 17:35:00,
2013-01-26 12:41:00,23.8,22.6,30.27,West,280,2.0,3.0,95,0.00,,,0.00,Wunderground v.1.15,2013-01-26 17:41:00,
2013-01-26 12:47:00,23.8,22.6,30.27,SW,230,2.0,4.0,95,0.00,,,0.00,Wunderground v.1.15,2013-01-26 17:47:00,
2013-01-26 12:53:00,23.8,22.6,30.27,WNW,294,2.0,3.0,95,0.00,,,0.00,Wunderground v.1.15,2013-01-26 17:53:00,
2013-01-26 12:59:00,23.8,22.6,30.27,WSW,256,2.0,4.0,95,0.00,,,0.00,Wunderground v.1.15,2013-01-26 17:59:00,
2013-01-26 13:05:00,23.7,22.5,30.27,NW,313,3.0,6.0,95,0.00,,,0.00,Wunderground v.1.15,2013-01-26 18:05:00,
2013-01-26 13:10:00,23.7,22.5,30.27,WNW,296,3.0,3.0,95,0.00,,,0.00,Wunderground v.1.15,2013-01-26 18:10:00,
2013-01-26 13:16:00,23.6,22.4,30.28,NW,324,3.0,7.0,95,0.00,,,0.00,Wunderground v.1.15,2013-01-26 18:16:00,
2013-01-26 13:22:00,23.6,22.4,30.28,WNW,282,2.0,3.0,95,0.00,,,0.00,Wunderground v.1.15,2013-01-26 18:22:00,
2013-01-26 13:28:00,23.6,22.4,30.28,SW,232,2.0,4.0,95,0.00,,,0.00,Wunderground v.1.15,2013-01-26 18:28:00,
2013-01-26 13:34:00,23.6,22.4,30.28,NNW,330,3.0,4.0,95,0.00,,,0.00,Wunderground v.1.15,2013-01-26 18:34:00,
2013-01-26 13:40:00,23.7,22.5,30.28,WNW,293,2.0,2.0,95,0.00,,,0.00,Wunderground v.1.15,2013-01-26 18:40:00,
2013-01-26 13:46:00,23.7,22.5,30.28,WNW,292,2.0,5.0,95,0.00,,,0.00,Wunderground v.1.15,2013-01-26 18:46:00,
2013-01-26 13:51:00,23.7,22.5,30.28,WNW,283,2.0,3.0,95,0.00,,,0.00,Wunderground v.1.15,2013-01-26 18:51:00,
2013-01-26 13:56:00,23.8,22.6,30.28,West,267,2.0,5.0,95,0.00,,,0.00,Wunderground v.1.15,2013-01-26 18:56:00,
2013-01-26 14:02:00,23.8,22.6,30.28,NW,308,1.0,3.0,95,0.00,,,0.00,Wunderground v.1.15,2013-01-26 19:02:00,
2013-01-26 14:08:00,23.9,22.7,30.29,NNW,328,2.0,3.0,95,0.00,,,0.00,Wunderground v.1.15,2013-01-26 19:08:00,
2013-01-26 14:14:00,24.0,22.8,30.29,West,259,2.0,4.0,95,0.00,,,0.00,Wunderground v.1.15,2013-01-26 19:14:00,
2013-01-26 14:20:00,24.1,22.9,30.29,NNW,327,2.0,4.0,95,0.00,,,0.00,Wunderground v.1.15,2013-01-26 19:20:00,
2013-01-26 14:26:00,24.1,22.9,30.29,NW,306,2.0,5.0,95,0.00,,,0.00,Wunderground v.1.15,2013-01-26 19:26:00,
2013-01-26 14:32:00,24.3,23.3,30.29,West,281,1.0,3.0,96,0.00,,,0.00,Wunderground v.1.15,2013-01-26 19:32:00,
2013-01-26 14:38:00,24.3,23.1,30.29,WNW,298,2.0,4.0,95,0.00,,,0.00,Wunderground v.1.15,2013-01-26 19:38:00,
2013-01-26 14:43:00,24.2,23.0,30.30,WNW,302,2.0,5.0,95,0.00,,,0.00,Wunderground v.1.15,2013-01-26 19:43:00,
2013-01-26 14:49:00,24.1,22.9,30.30,West,277,2.0,5.0,95,0.00,,,0.00,Wunderground v.1.15,2013-01-26 19:49:00,
2013-01-26 14:54:00,24.2,23.0,30.30,WNW,289,2.0,3.0,95,0.00,,,0.00,Wunderground v.1.15,2013-01-26 19:54:00,
2013-01-26 15:00:00,24.2,23.0,30.30,WNW,299,1.0,3.0,95,0.00,,,0.00,Wunderground v.1.15,2013-01-26 20:00:00,
2013-01-26 15:06:00,24.0,22.8,30.30,West,265,2.0,3.0,95,0.00,,,0.00,Wunderground v.1.15,2013-01-26 20:06:00,
2013-01-26 15:12:00,23.8,22.6,30.31,NW,324,2.0,3.0,95,0.00,,,0.00,Wunderground v.1.15,2013-01-26 20:12:00,
2013-01-26 15:18:00,23.7,22.5,30.31,West,275,2.0,5.0,95,0.00,,,0.00,Wunderground v.1.15,2013-01-26 20:18:00,
2013-01-26 15:24:00,23.6,22.4,30.31,WNW,300,2.0,3.0,95,0.00,,,0.00,Wunderground v.1.15,2013-01-26 20:24:00,
2013-01-26 15:29:00,23.7,22.5,30.31,WNW,286,2.0,3.0,95,0.00,,,0.00,Wunderground v.1.15,2013-01-26 20:29:00,
2013-01-26 15:35:00,23.9,22.7,30.31,WNW,286,1.0,3.0,95,0.00,,,0.00,Wunderground v.1.15,2013-01-26 20:35:00,
2013-01-26 15:41:00,24.0,22.8,30.31,West,281,2.0,3.0,95,0.00,,,0.00,Wunderground v.1.15,2013-01-26 20:41:00,
2013-01-26 15:47:00,24.0,22.8,30.31,WNW,286,2.0,4.0,95,0.00,,,0.00,Wunderground v.1.15,2013-01-26 20:47:00,
2013-01-26 15:53:00,24.1,22.9,30.32,NW,312,2.0,3.0,95,0.00,,,0.00,Wunderground v.1.15,2013-01-26 20:53:00,
2013-01-26 15:59:00,24.2,23.0,30.32,WNW,300,2.0,3.0,95,0.00,,,0.00,Wunderground v.1.15,2013-01-26 20:59:00,
2013-01-26 16:05:00,24.1,22.9,30.32,WNW,287,1.0,3.0,95,0.00,,,0.00,Wunderground v.1.15,2013-01-26 21:05:00,
2013-01-26 16:10:00,24.0,22.8,30.32,WNW,300,1.0,3.0,95,0.00,,,0.00,Wunderground v.1.15,2013-01-26 21:10:00,
2013-01-26 16:16:00,24.0,22.8,30.33,NW,308,1.0,3.0,95,0.00,,,0.00,Wunderground v.1.15,2013-01-26 21:16:00,
2013-01-26 16:22:00,24.1,22.9,30.33,NW,313,2.0,3.0,95,0.00,,,0.00,Wunderground v.1.15,2013-01-26 21:22:00,
2013-01-26 16:28:00,24.1,22.9,30.33,NW,311,2.0,3.0,95,0.00,,,0.00,Wunderground v.1.15,2013-01-26 21:28:00,
2013-01-26 16:34:00,24.1,22.9,30.33,NNW,329,2.0,3.0,95,0.00,,,0.00,Wunderground v.1.15,2013-01-26 21:34:00,
2013-01-26 16:40:00,24.0,22.8,30.33,NNW,328,2.0,3.0,95,0.00,,,0.00,Wunderground v.1.15,2013-01-26 21:40:00,
2013-01-26 16:46:00,23.9,22.7,30.34,West,275,3.0,5.0,95,0.00,,,0.00,Wunderground v.1.15,2013-01-26 21:46:00,
2013-01-26 16:52:00,23.8,22.6,30.34,NW,309,2.0,3.0,95,0.00,,,0.00,Wunderground v.1.15,2013-01-26 21:52:00,
2013-01-26 16:58:00,23.8,22.6,30.34,NW,304,1.0,3.0,95,0.00,,,0.00,Wunderground v.1.15,2013-01-26 21:58:00,
2013-01-26 17:03:00,23.7,22.5,30.34,WNW,289,1.0,6.0,95,0.00,,,0.00,Wunderground v.1.15,2013-01-26 22:03:00,
2013-01-26 17:09:00,23.5,22.0,30.35,NW,319,3.0,6.0,94,0.00,,,0.00,Wunderground v.1.15,2013-01-26 22:09:00,
2013-01-26 17:15:00,23.4,21.9,30.35,NW,314,2.0,3.0,94,0.00,,,0.00,Wunderground v.1.15,2013-01-26 22:15:00,
2013-01-26 17:21:00,23.4,21.9,30.35,WNW,290,2.0,3.0,94,0.00,,,0.00,Wunderground v.1.15,2013-01-26 22:21:00,
2013-01-26 17:27:00,23.3,21.8,30.35,WNW,284,1.0,3.0,94,0.00,,,0.00,Wunderground v.1.15,2013-01-26 22:27:00,
2013-01-26 17:33:00,23.1,21.6,30.35,WNW,290,1.0,3.0,94,0.00,,,0.00,Wunderground v.1.15,2013-01-26 22:33:00,
2013-01-26 17:39:00,23.1,21.6,30.35,WNW,294,1.0,3.0,94,0.00,,,0.00,Wunderground v.1.15,2013-01-26 22:39:00,
2013-01-26 17:45:00,23.1,21.6,30.35,WNW,282,1.0,3.0,94,0.00,,,0.00,Wunderground v.1.15,2013-01-26 22:45:00,
2013-01-26 17:50:00,23.0,21.5,30.36,NW,315,1.0,1.0,94,0.00,,,0.00,Wunderground v.1.15,2013-01-26 22:50:00,
2013-01-26 17:56:00,23.0,21.5,30.36,NW,323,2.0,3.0,94,0.00,,,0.00,Wunderground v.1.15,2013-01-26 22:56:00,
2013-01-26 18:02:00,22.9,21.4,30.37,NW,309,2.0,3.0,94,0.00,,,0.00,Wunderground v.1.15,2013-01-26 23:02:00,
2013-01-26 18:08:00,22.9,21.4,30.37,WNW,290,1.0,4.0,94,0.00,,,0.00,Wunderground v.1.15,2013-01-26 23:08:00,
2013-01-26 18:14:00,22.9,21.4,30.37,NW,315,1.0,3.0,94,0.00,,,0.00,Wunderground v.1.15,2013-01-26 23:14:00,
2013-01-26 18:20:00,22.8,21.3,30.37,WNW,290,2.0,3.0,94,0.00,,,0.00,Wunderground v.1.15,2013-01-26 23:20:00,
2013-01-26 18:26:00,22.7,21.2,30.38,WNW,298,2.0,4.0,94,0.00,,,0.00,Wunderground v.1.15,2013-01-26 23:26:00,
2013-01-26 18:32:00,22.7,21.0,30.38,NW,308,2.0,3.0,93,0.00,,,0.00,Wunderground v.1.15,2013-01-26 23:32:00,
2013-01-26 18:38:00,22.7,21.0,30.38,NW,313,1.0,3.0,93,0.00,,,0.00,Wunderground v.1.15,2013-01-26 23:38:00,
2013-01-26 18:44:00,22.7,21.0,30.38,WNW,301,1.0,3.0,93,0.00,,,0.00,Wunderground v.1.15,2013-01-26 23:44:00,
2013-01-26 18:49:00,22.6,20.9,30.38,NW,304,1.0,3.0,93,0.00,,,0.00,Wunderground v.1.15,2013-01-26 23:49:00,
2013-01-26 18:55:00,22.5,20.8,30.39,NNW,336,1.0,3.0,93,0.00,,,0.00,Wunderground v.1.15,2013-01-26 23:55:00,
2013-01-26 19:01:00,22.5,20.5,30.39,WNW,296,2.0,4.0,92,0.00,,,0.00,Wunderground v.1.15,2013-01-27 00:01:00,
2013-01-26 19:07:00,22.3,20.1,30.39,NW,321,3.0,4.0,91,0.00,,,0.00,Wunderground v.1.15,2013-01-27 00:07:00,
2013-01-26 19:13:00,22.2,19.7,30.40,NNW,327,2.0,3.0,90,0.00,,,0.00,Wunderground v.1.15,2013-01-27 00:13:00,
2013-01-26 19:19:00,22.1,19.4,30.40,WNW,296,2.0,3.0,89,0.00,,,0.00,Wunderground v.1.15,2013-01-27 00:19:00,
2013-01-26 19:25:00,22.1,19.4,30.40,NW,323,1.0,3.0,89,0.00,,,0.00,Wunderground v.1.15,2013-01-27 00:25:00,
2013-01-26 19:30:00,22.0,19.3,30.41,NW,325,1.0,3.0,89,0.00,,,0.00,Wunderground v.1.15,2013-01-27 00:30:00,
2013-01-26 19:36:00,22.0,19.3,30.41,NW,310,2.0,3.0,89,0.00,,,0.00,Wunderground v.1.15,2013-01-27 00:36:00,
2013-01-26 19:42:00,22.0,19.3,30.41,NW,310,1.0,3.0,89,0.00,,,0.00,Wunderground v.1.15,2013-01-27 00:42:00,
2013-01-26 19:48:00,22.0,19.3,30.41,NW,310,1.0,3.0,89,0.00,,,0.00,Wunderground v.1.15,2013-01-27 00:48:00,
2013-01-26 19:53:00,21.9,19.4,30.41,NW,310,1.0,3.0,90,0.00,,,0.00,Wunderground v.1.15,2013-01-27 00:53:00,
2013-01-26 19:59:00,21.8,19.3,30.41,NNW,338,2.0,4.0,90,0.00,,,0.00,Wunderground v.1.15,2013-01-27 00:59:00,
2013-01-26 20:05:00,21.8,19.3,30.42,NW,308,2.0,4.0,90,0.00,,,0.00,Wunderground v.1.15,2013-01-27 01:05:00,
2013-01-26 20:11:00,21.7,19.2,30.42,NW,326,2.0,3.0,90,0.00,,,0.00,Wunderground v.1.15,2013-01-27 01:11:00,
2013-01-26 20:17:00,21.6,18.9,30.42,WNW,290,2.0,8.0,89,0.00,,,0.00,Wunderground v.1.15,2013-01-27 01:17:00,
2013-01-26 20:23:00,21.5,18.5,30.43,NW,304,2.0,3.0,88,0.00,,,0.00,Wunderground v.1.15,2013-01-27 01:23:00,
2013-01-26 20:29:00,21.5,18.5,30.43,NW,321,2.0,3.0,88,0.00,,,0.00,Wunderground v.1.15,2013-01-27 01:29:00,
2013-01-26 20:34:00,21.3,18.3,30.44,NNW,338,2.0,4.0,88,0.00,,,0.00,Wunderground v.1.15,2013-01-27 01:34:00,
2013-01-26 20:40:00,21.3,17.5,30.44,NW,325,2.0,2.0,85,0.00,,,0.00,Wunderground v.1.15,2013-01-27 01:40:00,
2013-01-26 20:46:00,21.2,17.1,30.44,NW,323,2.0,5.0,84,0.00,,,0.00,Wunderground v.1.15,2013-01-27 01:46:00,
2013-01-26 20:52:00,21.2,17.1,30.44,NW,316,3.0,3.0,84,0.00,,,0.00,Wunderground v.1.15,2013-01-27 01:52:00,
2013-01-26 20:58:00,21.1,16.7,30.44,NW,313,2.0,6.0,83,0.00,,,0.00,Wunderground v.1.15,2013-01-27 01:58:00,
2013-01-26 21:04:00,21.1,16.7,30.44,WNW,297,2.0,4.0,83,0.00,,,0.00,Wunderground v.1.15,2013-01-27 02:04:00,
2013-01-26 21:10:00,21.1,16.7,30.44,WNW,298,2.0,2.0,83,0.00,,,0.00,Wunderground v.1.15,2013-01-27 02:10:00,
2013-01-26 21:16:00,21.1,16.5,30.44,NNW,345,2.0,3.0,82,0.00,,,0.00,Wunderground v.1.15,2013-01-27 02:16:00,
2013-01-26 21:22:00,21.0,16.6,30.44,WNW,300,2.0,3.0,83,0.00,,,0.00,Wunderground v.1.15,2013-01-27 02:22:00,
2013-01-26 21:28:00,21.0,16.4,30.44,NNW,337,2.0,3.0,82,0.00,,,0.00,Wunderground v.1.15,2013-01-27 02:28:00,
2013-01-26 21:33:00,20.9,16.3,30.44,NNW,333,2.0,3.0,82,0.00,,,0.00,Wunderground v.1.15,2013-01-27 02:33:00,
2013-01-26 21:39:00,20.9,16.3,30.45,NNW,334,2.0,3.0,82,0.00,,,0.00,Wunderground v.1.15,2013-01-27 02:39:00,
2013-01-26 21:45:00,20.9,16.3,30.45,NNW,334,1.0,4.0,82,0.00,,,0.00,Wunderground v.1.15,2013-01-27 02:45:00,
2013-01-26 21:51:00,20.8,16.2,30.45,NW,318,1.0,3.0,82,0.00,,,0.00,Wunderground v.1.15,2013-01-27 02:51:00,
2013-01-26 21:57:00,20.8,16.2,30.45,WNW,290,1.0,4.0,82,0.00,,,0.00,Wunderground v.1.15,2013-01-27 02:57:00,
2013-01-26 22:03:00,20.7,15.8,30.45,NE,38,1.0,3.0,81,0.00,,,0.00,Wunderground v.1.15,2013-01-27 03:03:00,
2013-01-26 22:09:00,20.7,15.8,30.45,NW,319,1.0,3.0,81,0.00,,,0.00,Wunderground v.1.15,2013-01-27 03:09:00,
2013-01-26 22:15:00,20.7,15.5,30.45,WNW,302,2.0,5.0,80,0.00,,,0.00,Wunderground v.1.15,2013-01-27 03:15:00,
2013-01-26 22:20:00,20.7,15.5,30.46,NW,321,2.0,3.0,80,0.00,,,0.00,Wunderground v.1.15,2013-01-27 03:20:00,
2013-01-26 22:26:00,20.6,15.4,30.46,NW,324,1.0,3.0,80,0.00,,,0.00,Wunderground v.1.15,2013-01-27 03:26:00,
2013-01-26 22:32:00,20.6,15.4,30.47,WNW,300,1.0,3.0,80,0.00,,,0.00,Wunderground v.1.15,2013-01-27 03:32:00,
2013-01-26 22:38:00,20.5,15.3,30.47,NW,325,1.0,3.0,80,0.00,,,0.00,Wunderground v.1.15,2013-01-27 03:38:00,
2013-01-26 22:44:00,20.5,15.6,30.47,NW,325,1.0,3.0,81,0.00,,,0.00,Wunderground v.1.15,2013-01-27 03:44:00,
2013-01-26 22:50:00,20.4,15.2,30.47,NW,324,1.0,3.0,80,0.00,,,0.00,Wunderground v.1.15,2013-01-27 03:50:00,
2013-01-26 22:56:00,20.4,15.5,30.48,NW,324,1.0,3.0,81,0.00,,,0.00,Wunderground v.1.15,2013-01-27 03:56:00,
2013-01-26 23:02:00,20.3,15.4,30.48,NW,325,1.0,3.0,81,0.00,,,0.00,Wunderground v.1.15,2013-01-27 04:02:00,
2013-01-26 23:08:00,20.3,15.1,30.48,NW,325,1.0,3.0,80,0.00,,,0.00,Wunderground v.1.15,2013-01-27 04:08:00,
2013-01-26 23:14:00,20.3,15.1,30.48,NW,325,1.0,3.0,80,0.00,,,0.00,Wunderground v.1.15,2013-01-27 04:14:00,
2013-01-26 23:19:00,20.2,15.3,30.48,NW,325,0.0,3.0,81,0.00,,,0.00,Wunderground v.1.15,2013-01-27 04:19:00,
2013-01-26 23:25:00,20.2,15.3,30.48,WNW,286,0.0,3.0,81,0.00,,,0.00,Wunderground v.1.15,2013-01-27 04:25:00,
2013-01-26 23:31:00,20.1,14.9,30.48,WNW,301,0.0,3.0,80,0.00,,,0.00,Wunderground v.1.15,2013-01-27 04:31:00,
2013-01-26 23:37:00,20.1,15.2,30.48,WNW,301,0.0,3.0,81,0.00,,,0.00,Wunderground v.1.15,2013-01-27 04:37:00,
2013-01-26 23:43:00,20.0,15.1,30.48,NW,313,0.0,3.0,81,0.00,,,0.00,Wunderground v.1.15,2013-01-27 04:43:00,
2013-01-26 23:49:00,20.0,15.1,30.48,NW,313,0.0,3.0,81,0.00,,,0.00,Wunderground v.1.15,2013-01-27 04:49:00,
2013-01-26 23:55:00,20.0,14.8,30.48,NW,313,0.0,3.0,80,0.00,,,0.00,Wunderground v.1.15,2013-01-27 04:55:00,